Flag for Denmark Weather past 2 weeks in Aalborg, Denmark

Now
59 °F

Partly sunny.


Feels Like: 57 °F
Forecast: 53 / 62 °F
Wind: 13 mph from West

Location: Aalborg Airport

Current Time: Jul 30, 2015 at 10:25:43 PM

Latest Report: Jul 30, 2015 at 9:50 PM


Visibility: N/A

Pressure: 29.68 "Hg

Humidity: 82%

Dew point: 54 °F

Location of AalborgLocation

Historic Weather in Aalborg — Graph

°F

Aalborg temperature yesterday

Maximum temperature yesterday: 64 °F (at 2:20 PM)
Minimum temperature yesterday: 52 °F (at 11:50 PM)
Average temperature yesterday: 60 °F

Past Weeks' High & Low Weather Summary

 TemperatureHumidityPressure
High70 °F (Jul 22, 1:50 PM)100% (Jul 17, 4:20 AM)30.04 "Hg (Jul 17, 4:20 AM)
Low46 °F (Jul 30, 3:20 AM)35% (Jul 24, 2:50 PM)29.36 "Hg (Jul 28, 8:50 AM)
Average59 °F81%29.71 "Hg
* Reported Jul 15 9:20 PM — Jul 30 9:20 PM, Aalborg, Weather by CustomWeather, © 2015

Note: Actual official high and low records may vary slightly from our data, if they occured in-between our weather recording intervals... More about our weather records

Advertising

Aalborg weather history for previous 24 hours

 ConditionsComfort  
Time TempWeatherWind HumidityBarometerVisibility
9:20 PM
Thu, Jul 30
59 °FPartly sunny.15 mph82%29.68 "HgN/A
8:50 PM59 °FPartly sunny.15 mph82%29.65 "HgN/A
8:20 PM61 °FPartly sunny.12 mph88%29.65 "HgN/A
7:50 PM64 °FScattered clouds.13 mph78%29.65 "HgN/A
7:20 PM64 °FScattered clouds.12 mph73%29.65 "HgN/A
6:50 PM66 °FPassing clouds.13 mph73%29.65 "HgN/A
6:20 PM66 °FPassing clouds.10 mph68%29.65 "HgN/A
5:50 PM66 °FPassing clouds.12 mph73%29.62 "HgN/A
5:20 PM68 °FPassing clouds.10 mph69%29.62 "HgN/A
4:50 PM68 °FPassing clouds.10 mph69%29.62 "HgN/A
4:20 PM68 °FPassing clouds.10 mph69%29.59 "HgN/A
3:50 PM68 °FPassing clouds.9 mph64%29.59 "HgN/A
3:20 PM68 °FPassing clouds.9 mph64%29.59 "HgN/A
2:50 PM68 °FPassing clouds.10 mph64%29.59 "HgN/A
2:20 PM66 °FPassing clouds.9 mph68%29.59 "HgN/A
1:50 PM66 °FScattered clouds.9 mph68%29.59 "HgN/A
1:20 PM66 °FScattered clouds.10 mph64%29.59 "HgN/A
12:50 PM66 °FPassing clouds.9 mph68%29.56 "HgN/A
12:20 PM64 °FScattered clouds.8 mph68%29.56 "HgN/A
11:50 AM66 °FScattered clouds.8 mph68%29.56 "HgN/A
11:20 AM64 °FScattered clouds.8 mph73%29.56 "HgN/A
10:50 AM63 °FScattered clouds.9 mph73%29.56 "HgN/A
10:20 AM63 °FScattered clouds.9 mph73%29.53 "HgN/A
9:50 AM61 °FPassing clouds.8 mph77%29.53 "HgN/A
9:20 AM61 °FPassing clouds.6 mph83%29.53 "HgN/A
8:50 AM59 °FScattered clouds.5 mph88%29.53 "HgN/A
8:20 AM59 °FScattered clouds.3 mph94%29.50 "HgN/A
7:50 AM55 °FPassing clouds.3 mph100%29.50 "HgN/A
7:20 AM54 °FSunny.2 mph100%29.50 "Hg10 mi
6:50 AM52 °FLight fog.No wind94%29.50 "Hg5 mi
6:20 AM48 °FLight fog.No wind100%29.50 "Hg1 mi
5:50 AM48 °FLight fog.No wind94%29.50 "Hg4 mi
5:20 AM46 °FLight fog.No wind100%29.47 "Hg4 mi
4:50 AM46 °FLight fog.No wind100%29.47 "HgN/A
4:20 AM48 °FFog.No wind94%29.47 "HgN/A
3:50 AM48 °FFog.1 mph94%29.47 "HgN/A
3:20 AM46 °FFog.1 mph100%29.47 "HgN/A
2:50 AM50 °FFog.1 mph94%29.47 "HgN/A
2:20 AM50 °FFog.1 mph100%29.47 "HgN/A
1:50 AM50 °FFog.1 mph94%29.47 "HgN/A
1:20 AM50 °FPassing clouds.2 mph94%29.47 "HgN/A
12:50 AM52 °FPassing clouds.1 mph94%29.47 "HgN/A
12:20 AM54 °FPassing clouds.3 mph88%29.45 "HgN/A
11:50 PM
Wed, Jul 29
52 °FPassing clouds.3 mph94%29.45 "HgN/A
11:20 PM54 °FPassing clouds.3 mph88%29.45 "HgN/A
10:50 PM55 °FPassing clouds.2 mph88%29.45 "HgN/A
10:20 PM55 °FPassing clouds.5 mph82%29.45 "HgN/A
Weather by CustomWeather, © 2015

See weather overviewHow to use our weather pages